Location: Newark
(48.5156°N, 1.8989°W)
Time: 01:00:27
(UTC+00:00)

Transit 4A - Pass Details

Date: 28 November 2019
Orbit: 870 x 975 km, 66.8° (Epoch: 05 December)

Event Time Altitude Azimuth Distance (km) Brightness Sun altitude
Exits shadow 05:01:01 61° 263° (W) 994 7.7 -24.6°
Maximum altitude 05:01:26 62° 241° (WSW) 979 7.7 -24.5°
Drops below altitude 10° 05:07:08 10° 162° (SSE) 2,510 10.4 -23.6°
Sets 05:09:37 0° 159° (SSE) 3,443 11.2 -23.2°
